Location: *
(43.9905°S, 176.4941°W)
Time: 09:22:23
(UTC+00:00)

Cosmos 2285 Rocket - Pass Details

Date: 08 December 2019
Orbit: 971 x 998 km, 74.0° (Epoch: 27 January)

Event Time Altitude Azimuth Distance (km) Brightness Sun altitude
Rises 08:00:27 0° 199° (SSW) 3,739 8.2 -6.8°
Reaches altitude 10° 08:03:04 10° 196° (SSW) 2,788 7.4 -7.2°
Maximum altitude 08:09:30 65° 114° (ESE) 1,104 4.2 -8.1°
Drops below altitude 10° 08:15:54 10° 32° (NNE) 2,770 5.7 -8.9°
Enters shadow 08:15:59 10° 32° (NNE) 2,798 5.8 -8.9°
